Back to Previous

Regional Weather Roundup

189 
ASUS44 KLZK 271605
RWRLZK

WEATHER ROUNDUP FOR ARKANSAS
NATIONAL WEATHER SERVICE LITTLE ROCK AR
1000 AM CST FRI FEB 27 2015

NOTE: "FAIR" INDICATES FEW OR NO CLOUDS BELOW 12,000 FEET WITH NO
SIGNIFICANT WEATHER AND/OR OBSTRUCTIONS TO VISIBILITY.

ARZ001-003-010-029-271700-
NORTHWEST ARKANSAS
  
CITY           SKY/WX    TMP DP  RH WIND       PRES   REMARKS
FAYETTEVILLE   PTSUNNY   16   4  59 NE7       30.54R WCI   6          
FORT SMITH     CLOUDY    23   4  44 E13       30.57F WCI  11          
HARRISON       SUNNY     16   4  59 N7        30.54S WCI   6          
BENTONVILLE    PTSUNNY   16   1  53 NE9       30.53F WCI   4          
ROGERS         CLOUDY    15   2  56 NE9       30.53F WCI   3          
SILOAM SPGS    PTSUNNY   16   0  48 NE8       30.55R WCI   5          
HIGHFILL       CLOUDY    16   1  51 NE10      30.53S WCI   4          
$$

ARZ004-005-016-271700-
NORTH CENTRAL ARKANSAS
  
CITY           SKY/WX    TMP DP  RH WIND       PRES   REMARKS
BATESVILLE     SUNNY     21   1  42 NE9       30.61F WCI  11          
FLIPPIN        SUNNY     18   1  49 NE8       30.59F WCI   7          
MTN HOME       SUNNY     15   1  53 E7        30.58S WCI   5          
$$

ARZ040-041-271700-
WEST CENTRAL ARKANSAS
  
CITY           SKY/WX    TMP DP  RH WIND       PRES   REMARKS
MENA           MOSUNNY   28  10  47 E14       30.49S WCI  17          
MOUNT IDA      MOSUNNY   25  10  53 E7        30.50F WCI  17          
$$

ARZ009-017-025-026-028-271700-
NORTHEAST ARKANSAS
  
CITY           SKY/WX    TMP DP  RH WIND       PRES   REMARKS
JONESBORO      SUNNY     19   8  62 NE18      30.63S WCI   4          
NEWPORT        SUNNY     20   8  59 NE15      30.65R WCI   6          
WALNUT RIDGE   SUNNY     18   3  53 NE14      30.65F WCI   4          
BLYTHEVILLE    SUNNY     21  13  71 N15       30.64F WCI   8          
NW BLYTHEVILLE SUNNY     19  10  68 N15G22    30.64S WCI   5          
$$

ARZ022-023-033-042-044-271700-
CENTRAL ARKANSAS
  
CITY           SKY/WX    TMP DP  RH WIND       PRES   REMARKS
LITTLE ROCK    MOSUNNY   25   9  50 E12       30.61F WCI  14          
N LITTLE ROCK  MOSUNNY   26  13  59 E13G20    30.61F WCI  15          
JACKSONVILLE   MOSUNNY   24   8  49 NE12      30.60S WCI  13          
SEARCY         SUNNY     24   9  52 NE13      30.64R WCI  12          
HOT SPRINGS    SUNNY     26  11  52 E15       30.54F WCI  14          
RUSSELLVILLE   MOSUNNY   24   7  48 NE9       30.58F WCI  14          
CLINTON        FAIR      23   5  46 CALM      30.62S                  
$$

ARZ036-271700-
EAST ARKANSAS
  
CITY           SKY/WX    TMP DP  RH WIND       PRES   REMARKS
WEST MEMPHIS   SUNNY     24  14  65 NE13G23   30.61R WCI  12          
$$

ARZ050-053-066-070-073-271700-
SOUTHWEST ARKANSAS
  
CITY           SKY/WX    TMP DP  RH WIND       PRES   REMARKS
ARKADELPHIA    FAIR      27  14  57 VRB6      30.59F WCI  21          
CAMDEN         PTSUNNY   28  14  54 MISG      30.58S                  
TEXARKANA      MOSUNNY   27  15  61 NE10G18   30.52S WCI  17          
EL DORADO      CLOUDY    28  18  66 NE9       30.56R WCI  19          
DE QUEEN       PTSUNNY   28  12  51 E12       30.52S WCI  18          
$$

ARZ056-057-069-271700-
SOUTHEAST ARKANSAS
  
CITY           SKY/WX    TMP DP  RH WIND       PRES   REMARKS
PINE BLUFF     PTSUNNY   25  14  63 NE16      30.60R WCI  12          
STUTTGART      MOSUNNY   25  14  63 NE15      30.61S WCI  12          
MONTICELLO     CLOUDY    28  17  63 NE15      30.56R WCI  16          

$$




USA.gov is the U.S. government's official web portal to all federal, state and local government web resources and services.